Time,TemperatureF,DewpointF,PressureIn,WindDirection,WindDirectionDegrees,WindSpeedMPH,WindSpeedGustMPH,Humidity,HourlyPrecipIn,Conditions,Clouds,dailyrainin,SolarRadiationWatts/m^2,SoftwareType,DateUTC
2013-01-03 00:33:00,-5.0,-11.0,-100.00,SSE,152,1.0,4.0,75,-99.99,,,0.00,0.000000,,2013-01-03 07:33:00,
2013-01-03 01:43:00,-9.0,-16.0,-100.00,SW,230,2.0,4.0,72,-99.99,,,0.00,0.000000,,2013-01-03 08:43:00,
2013-01-03 01:53:00,-9.0,-16.0,-100.00,SW,230,2.0,4.0,72,-99.99,,,0.00,0.000000,,2013-01-03 08:53:00,
2013-01-03 02:34:00,0.0,-7.0,-100.00,SW,217,6.0,9.0,73,-99.99,,,0.00,0.000000,,2013-01-03 09:34:00,
2013-01-03 03:33:00,21.0,-3.0,-100.00,SSE,148,10.0,15.0,34,-99.99,,,0.00,0.000000,,2013-01-03 10:33:00,
2013-01-03 04:11:00,21.0,-3.0,-100.00,SSE,148,10.0,15.0,34,-99.99,,,0.00,0.000000,,2013-01-03 11:11:00,
2013-01-03 04:33:00,22.0,-8.0,-100.00,ESE,103,15.0,23.0,26,0.00,,,-99.99,0.000000,,2013-01-03 11:33:00,
2013-01-03 05:02:00,22.0,-8.0,-100.00,ESE,103,15.0,23.0,26,0.00,,,-99.99,0.000000,,2013-01-03 12:02:00,
2013-01-03 05:12:00,22.0,-8.0,-100.00,ESE,103,15.0,23.0,26,0.00,,,-99.99,0.000000,,2013-01-03 12:12:00,
2013-01-03 05:43:00,20.0,-4.0,-100.00,ESE,103,13.0,27.0,34,0.00,,,0.00,0.000000,,2013-01-03 12:43:00,
2013-01-03 05:53:00,20.0,-4.0,-100.00,ESE,103,13.0,27.0,34,0.00,,,0.00,0.000000,,2013-01-03 12:53:00,
2013-01-03 06:02:00,20.0,-4.0,-100.00,ESE,103,13.0,27.0,34,0.00,,,0.00,0.000000,,2013-01-03 13:02:00,
2013-01-03 06:12:00,20.0,-4.0,-100.00,ESE,103,13.0,27.0,34,0.00,,,0.00,0.000000,,2013-01-03 13:12:00,
2013-01-03 06:42:00,19.0,-3.0,-100.00,East,101,16.0,23.0,37,0.00,,,0.00,0.000000,,2013-01-03 13:42:00,
2013-01-03 06:53:00,19.0,-3.0,-100.00,East,101,16.0,23.0,37,0.00,,,0.00,0.000000,,2013-01-03 13:53:00,
2013-01-03 07:02:00,19.0,-3.0,-100.00,East,101,16.0,23.0,37,0.00,,,0.00,0.000000,,2013-01-03 14:02:00,
2013-01-03 07:12:00,19.0,-3.0,-100.00,East,101,16.0,23.0,37,0.00,,,0.00,0.000000,,2013-01-03 14:12:00,
2013-01-03 07:33:00,20.0,-5.0,-100.00,ESE,107,19.0,31.0,32,0.00,,,0.00,0.000000,,2013-01-03 14:33:00,
2013-01-03 07:43:00,20.0,-5.0,-100.00,ESE,107,19.0,31.0,32,0.00,,,0.00,0.000000,,2013-01-03 14:43:00,
2013-01-03 07:53:00,20.0,-5.0,-100.00,ESE,107,19.0,31.0,32,0.00,,,0.00,0.000000,,2013-01-03 14:53:00,
2013-01-03 08:02:00,20.0,-5.0,-100.00,ESE,107,19.0,31.0,32,0.00,,,0.00,0.000000,,2013-01-03 15:02:00,
2013-01-03 08:43:00,20.0,-4.0,-100.00,ESE,105,17.0,29.0,34,0.00,,,0.00,26.000000,,2013-01-03 15:43:00,
2013-01-03 08:53:00,20.0,-4.0,-100.00,ESE,105,17.0,29.0,34,0.00,,,0.00,26.000000,,2013-01-03 15:53:00,
2013-01-03 09:03:00,20.0,-4.0,-100.00,ESE,105,17.0,29.0,34,0.00,,,0.00,26.000000,,2013-01-03 16:03:00,
2013-01-03 09:12:00,20.0,-4.0,-100.00,ESE,105,17.0,29.0,34,0.00,,,0.00,26.000000,,2013-01-03 16:12:00,
2013-01-03 09:43:00,24.0,-6.0,-100.00,ESE,117,12.0,21.0,26,0.00,,,0.00,203.000000,,2013-01-03 16:43:00,
2013-01-03 09:53:00,24.0,-6.0,-100.00,ESE,117,12.0,21.0,26,0.00,,,0.00,203.000000,,2013-01-03 16:53:00,
2013-01-03 10:03:00,24.0,-6.0,-100.00,ESE,117,12.0,21.0,26,0.00,,,0.00,203.000000,,2013-01-03 17:03:00,
2013-01-03 10:12:00,24.0,-6.0,-100.00,ESE,117,12.0,21.0,26,0.00,,,0.00,203.000000,,2013-01-03 17:12:00,
2013-01-03 10:43:00,27.0,-2.0,-100.00,SE,124,9.0,19.0,28,0.00,,,0.00,374.000000,,2013-01-03 17:43:00,
2013-01-03 10:53:00,27.0,-2.0,-100.00,SE,124,9.0,19.0,28,0.00,,,0.00,374.000000,,2013-01-03 17:53:00,
2013-01-03 11:03:00,27.0,-2.0,-100.00,SE,124,9.0,19.0,28,0.00,,,0.00,374.000000,,2013-01-03 18:03:00,
2013-01-03 11:12:00,27.0,-2.0,-100.00,SE,124,9.0,19.0,28,0.00,,,0.00,374.000000,,2013-01-03 18:12:00,
2013-01-03 11:33:00,30.0,-3.0,-100.00,East,98,14.0,28.0,23,0.00,,,0.00,508.000000,,2013-01-03 18:33:00,
2013-01-03 11:43:00,30.0,-3.0,-100.00,East,98,14.0,28.0,23,0.00,,,0.00,508.000000,,2013-01-03 18:43:00,
2013-01-03 11:53:00,30.0,-3.0,-100.00,East,98,14.0,28.0,23,0.00,,,0.00,508.000000,,2013-01-03 18:53:00,
2013-01-03 12:03:00,30.0,-3.0,-100.00,East,98,14.0,28.0,23,0.00,,,0.00,508.000000,,2013-01-03 19:03:00,
2013-01-03 12:12:00,30.0,-3.0,-100.00,East,98,14.0,28.0,23,0.00,,,0.00,508.000000,,2013-01-03 19:12:00,
2013-01-03 12:56:00,36.0,-2.0,-100.00,NNE,20,3.0,18.0,19,0.00,,,-99.99,585.000000,,2013-01-03 19:56:00,
2013-01-03 13:12:00,36.0,-2.0,-100.00,NNE,20,3.0,18.0,19,0.00,,,-99.99,585.000000,,2013-01-03 20:12:00,
2013-01-03 13:33:00,39.0,-6.0,-100.00,SE,141,5.0,16.0,14,0.00,,,0.00,601.000000,,2013-01-03 20:33:00,
2013-01-03 14:50:00,40.0,-7.0,-100.00,ESE,106,4.0,14.0,13,0.00,,,0.00,553.000000,,2013-01-03 21:50:00,
2013-01-03 15:43:00,38.0,-5.0,-100.00,NE,55,5.0,7.0,15,-99.99,,,0.00,444.000000,,2013-01-03 22:43:00,
2013-01-03 15:52:00,38.0,-5.0,-100.00,NE,55,5.0,7.0,15,-99.99,,,0.00,444.000000,,2013-01-03 22:52:00,
2013-01-03 16:02:00,38.0,-5.0,-100.00,NE,55,5.0,7.0,15,-99.99,,,0.00,444.000000,,2013-01-03 23:02:00,
2013-01-03 16:12:00,38.0,-5.0,-100.00,NE,55,5.0,7.0,15,-99.99,,,0.00,444.000000,,2013-01-03 23:12:00,
2013-01-03 16:43:00,34.0,-2.0,-100.00,North,359,2.0,3.0,21,0.00,,,0.00,288.000000,,2013-01-03 23:43:00,
2013-01-03 16:53:00,34.0,-2.0,-100.00,North,359,2.0,3.0,21,0.00,,,0.00,288.000000,,2013-01-03 23:53:00,
2013-01-03 17:03:00,34.0,-2.0,-100.00,North,359,2.0,3.0,21,0.00,,,0.00,288.000000,,2013-01-04 00:03:00,
2013-01-03 17:12:00,34.0,-2.0,-100.00,North,359,2.0,3.0,21,0.00,,,0.00,288.000000,,2013-01-04 00:12:00,
2013-01-03 17:33:00,22.0,-1.0,-100.00,SW,220,4.0,8.0,35,0.00,,,0.00,102.000000,,2013-01-04 00:33:00,
2013-01-03 17:42:00,22.0,-1.0,-100.00,SW,220,4.0,8.0,35,0.00,,,0.00,102.000000,,2013-01-04 00:42:00,
2013-01-03 17:52:00,22.0,-1.0,-100.00,SW,220,4.0,8.0,35,0.00,,,0.00,102.000000,,2013-01-04 00:52:00,
2013-01-03 18:02:00,22.0,-1.0,-100.00,SW,220,4.0,8.0,35,0.00,,,0.00,102.000000,,2013-01-04 01:02:00,
2013-01-03 18:12:00,22.0,-1.0,-100.00,SW,220,4.0,8.0,35,0.00,,,0.00,102.000000,,2013-01-04 01:12:00,
2013-01-03 18:42:00,14.0,-1.0,-100.00,SW,215,3.0,5.0,51,0.00,,,0.00,3.000000,,2013-01-04 01:42:00,
2013-01-03 18:52:00,14.0,-1.0,-100.00,SW,215,3.0,5.0,51,0.00,,,0.00,3.000000,,2013-01-04 01:52:00,
2013-01-03 19:33:00,2.0,-8.0,-100.00,SSW,197,1.0,4.0,62,-99.99,,,0.00,0.000000,,2013-01-04 02:33:00,
2013-01-03 20:43:00,4.0,-6.0,-100.00,SW,217,4.0,5.0,61,-99.99,,,0.00,0.000000,,2013-01-04 03:43:00,
2013-01-03 20:53:00,4.0,-6.0,-100.00,SW,217,4.0,5.0,61,-99.99,,,0.00,0.000000,,2013-01-04 03:53:00,
2013-01-03 21:32:00,5.0,-9.0,-100.00,SSW,198,2.0,5.0,51,-99.99,,,0.00,0.000000,,2013-01-04 04:32:00,
2013-01-03 22:33:00,-4.0,-11.0,-100.00,SW,226,4.0,4.0,72,0.00,,,0.00,0.000000,,2013-01-04 05:33:00,
2013-01-03 23:33:00,15.0,-2.0,-100.00,ESE,102,7.0,11.0,47,-99.99,,,0.00,0.000000,,2013-01-04 06:33:00,
2013-01-03 23:42:00,15.0,-2.0,-100.00,ESE,102,7.0,11.0,47,-99.99,,,0.00,0.000000,,2013-01-04 06:42:00,
2013-01-03 23:52:00,15.0,-2.0,-100.00,ESE,102,7.0,11.0,47,-99.99,,,0.00,0.000000,,2013-01-04 06:52:00,